sat.trackr.live / text

‹ back to catalog

UNKNOWN

NORAD 81947

UNKNOWN UNKNOWN UNKNOWN

§ Identity

Operator
Country
Launch date
Launch site
Launch vehicle
Mass (kg)
RCS (m²)

External: N2YO · Heavens-Above

§ Orbital elements

Epoch: 2026-05-22T05:21:14.960448Z

Period
99.01 min
Inclination
66.0742°
Eccentricity
0.0368737
Mean motion
14.54457894 rev/d
Perigee alt
449.7 km
Apogee alt
972.5 km
Semi-major
7,089.3 km
B*
5.6191e-4
RAAN
79.8143°
Arg perigee
41.5352°
Mean anomaly
321.3150°
Rev number
65,434

§ Raw data

UNKNOWN1 81947U          26142.22308982  .00005903  00000+0  56191-3 0  99992 81947  66.0742  79.8143 0368737  41.5352 321.3150 14.54457894654340

JSON: /api/v1/satellites/81947 · /tle

For live sub-satellite position, see the globe view (requires WebGL).

§ Visibility from observer

Set your observer location to see the next 7 days of passes ≥ 10°. The values pass through the URL so the page stays shareable.

No JS? Fill the form by hand. The geolocation button needs JavaScript.